www.pogodaiklimat.ru

Погода и климат >> Архив погоды >> Австралия >> Coober Pedy Airport


ПОГОДА в Coober Pedy Airport

  • Прогноз погоды в Coober Pedy Airport
  • Монитор погоды в Coober Pedy Airport
  • Климат города

АРХИВ ПОГОДЫ в Coober Pedy Airport

Время (UTC), дата Ветер
(напр.,м/с)
 
Видим.   Явления Облачность Т
(С)
Тd
(С)
f
(%)
Тe
(С)
Тes
(С)
Комфортность P
(гПа)
Po
(гПа)
Тmin
(С)
Tmax
(С)
R
(мм)
R24
(мм)
S
(см)
17 19.06 В 5 н/о н/о +9.1 +2.4 63 +6 +6 1025.8 998.6
16 19.06 В 4 н/о н/о +8.3 +2.1 65 +5 +5 1026.6 999.4
18 19.06 В 5 н/о н/о +9.3 +2.4 62 +6 +6 1025.9 998.7
19 19.06 В 5 н/о н/о +8.3 +2.1 65 +5 +5 1025.5 998.3
20 19.06 В 4 н/о н/о +7.2 +1.5 67 +4 +4 1025.3 998.2
21 19.06 В 4 н/о н/о +6.7 +1.8 71 +3 +3 1025.8 998.6
23 19.06 В 4 н/о н/о +9.6 +2.7 62 +7 +7 1026.6 999.4
22 19.06 В 3 н/о н/о +6.1 +1.8 74 +3 +3 1026.3 999.1
00 20.06 В 5 н/о н/о +12.7 +3.1 52 +11 +11 1027.1 999.9
01 20.06 СВ 6 н/о н/о +14.9 +2.4 43 +13 +13 1027.1 999.9
02 20.06 СВ 6 н/о н/о +16.9 +2.5 38 +16 +16 1026.7 999.5
03 20.06 СВ 5 н/о н/о +17.9 +3.0 37 +17 +17 1026.0 998.8
05 20.06 С 3 н/о н/о +20.1 +3.8 34 +21 +21 комфорт 1024.4 997.3
04 20.06 С 4 н/о н/о +19.1 +4.1 37 +19 +19 1024.9 997.8
06 20.06 В 4 н/о н/о +19.7 +2.1 31 +20 +20 1023.9 996.8
07 20.06 В 3 н/о н/о +19.6 +2.9 33 +20 +20 1023.9 996.8
08 20.06 В 3 н/о н/о +18.3 +1.8 33 +19 +19 1024.1 997.0
09 20.06 В 3 н/о н/о +16.0 +2.1 39 +16 +16 1024.5 997.4
11 20.06 В 4 н/о н/о +12.9 +2.5 49 +11 +11 1025.3 998.2
10 20.06 В 4 н/о н/о +13.7 +2.0 45 +13 +13 1024.9 997.8
12 20.06 В 4 н/о н/о +12.2 +2.6 52 +10 +10 1025.6 998.4
13 20.06 В 4 н/о н/о +11.3 +2.3 54 +9 +9 1025.6 998.4
14 20.06 В 5 н/о н/о +10.7 +2.5 57 +8 +8 1025.6 998.4
15 20.06 В 4 н/о н/о +10.0 +2.4 59 +8 +8 1025.6 998.4
17 20.06 В 4 н/о н/о +8.4 +1.8 63 +6 +6 1025.0 997.9
16 20.06 В 5 н/о н/о +9.3 +2.2 61 +6 +6 1025.2 998.1
18 20.06 В 4 н/о н/о +8.1 +1.5 63 +5 +5 1025.1 998.0
19 20.06 ЮВ 5 н/о н/о +8.3 +1.0 60 +5 +5 1025.2 998.1
20 20.06 В 6 н/о н/о +7.9 +0.6 60 +4 +4 1024.8 997.7
21 20.06 В 5 н/о н/о +8.0 +0.7 60 +5 +5 1025.5 998.3
23 20.06 В 5 н/о н/о +10.2 +0.8 52 +8 +8 1027.2 1000.0
22 20.06 В 5 н/о н/о +8.3 +0.3 57 +5 +5 1026.5 999.3
00 21.06 В 5 н/о н/о +13.5 +1.5 44 +12 +12 1027.5 1000.3
01 21.06 СВ 6 н/о н/о +15.7 +1.1 37 +14 +14 1026.7 999.5
02 21.06 СВ 5 н/о н/о +16.5 +1.0 35 +16 +16 1027.1 999.9
03 21.06 СВ 5 н/о н/о +18.5 +1.1 31 +18 +18 1026.2 999.0
05 21.06 СВ 3 н/о н/о +19.0 +1.1 30 +19 +19 1024.2 997.1
04 21.06 СВ 4 н/о н/о +19.2 +1.7 31 +19 +19 1025.0 997.9
06 21.06 В 3 н/о н/о +19.3 +1.3 30 +20 +20 1023.7 996.6
07 21.06 В 3 н/о н/о +19.0 +1.1 30 +19 +19 1023.6 996.5
08 21.06 В 2 н/о н/о +18.1 +0.7 31 +19 +19 1023.5 996.4
09 21.06 В 4 н/о н/о +15.7 +0.3 35 +15 +15 1023.9 996.8
11 21.06 В 4 н/о н/о +13.2 -0.1 40 +12 +12 1024.7 997.6
10 21.06 В 4 н/о н/о +15.2 +0.2 36 +15 +15 1024.0 996.9
12 21.06 В 4 н/о н/о +13.9 +0.5 40 +13 +13 1024.7 997.6
13 21.06 В 5 н/о н/о +13.7 +1.0 42 +12 +12 1024.8 997.7
14 21.06 В 5 н/о н/о +13.2 +0.9 43 +12 +12 1024.5 997.4
15 21.06 В 5 н/о н/о +13.3 +1.3 44 +12 +12 1023.8 996.7
17 21.06 СВ 6 н/о н/о +13.9 +2.2 45 +12 +12 1023.2 996.1
16 21.06 В 6 н/о н/о +13.7 +1.7 44 +12 +12 1023.4 996.3
18 21.06 В 5 н/о н/о +13.8 +2.4 46 +12 +12 1022.9 995.8
19 21.06 СВ 5 н/о н/о +13.0 +2.3 48 +11 +11 1022.9 995.8
20 21.06 СВ 4 н/о н/о +12.6 +2.2 49 +11 +11 1023.6 996.5
21 21.06 СВ 4 н/о н/о +12.0 +2.2 51 +10 +10 1023.4 996.3
23 21.06 СВ 6 н/о н/о +12.6 +1.9 48 +10 +10 1024.3 997.2
22 21.06 СВ 5 н/о н/о +11.3 +2.1 53 +9 +9 1023.8 996.7
00 22.06 СВ 8 н/о н/о +13.2 +1.2 44 +11 +11 1024.6 997.5
01 22.06 СВ 8 н/о н/о +15.9 +1.2 37 +14 +14 1024.5 997.4
02 22.06 С 7 н/о н/о +18.3 +1.8 33 +18 +18 1023.9 996.8
03 22.06 С 7 н/о н/о +20.5 +2.3 30 +21 +21 комфорт 1023.0 995.9
05 22.06 С 5 н/о н/о +21.8 +2.5 28 +22 +22 комфорт 1020.9 993.9
04 22.06 С 6 н/о н/о +21.2 +2.5 29 +21 +21 комфорт 1021.8 994.7
06 22.06 С 4 н/о н/о +22.9 +2.9 27 +23 +23 комфорт 1020.4 993.4
07 22.06 С 4 н/о н/о +22.5 +2.1 26 +22 +22 комфорт 1020.0 993.0
08 22.06 С 3 н/о н/о +21.0 +1.8 28 +22 +22 комфорт 1020.1 993.1
09 22.06 СВ 4 н/о н/о +17.4 +1.4 34 +17 +17 1020.4 993.4
11 22.06 СВ 3 н/о н/о +14.7 +1.3 40 +14 +14 1021.2 994.2
10 22.06 СВ 5 н/о н/о +15.8 +1.2 37 +15 +15 1020.6 993.6
12 22.06 СВ 4 н/о н/о +15.5 +1.6 39 +15 +15 1021.2 994.2
13 22.06 СВ 4 н/о н/о +15.3 +1.8 40 +14 +14 1020.9 993.9
14 22.06 СВ 5 н/о н/о +15.4 +1.5 39 +14 +14 1020.6 993.6
15 22.06 С 5 н/о н/о +14.9 +1.1 39 +14 +14 1020.3 993.3
17 22.06 С 5 н/о н/о +13.7 +1.7 44 +12 +12 1020.0 993.0
16 22.06 С 5 н/о н/о +14.6 +1.8 42 +13 +13 1020.0 993.0
18 22.06 С 6 н/о н/о +13.4 +1.7 45 +11 +11 1019.6 992.6
19 22.06 СВ 6 н/о н/о +13.1 +1.8 46 +11 +11 1019.2 992.2
20 22.06 СВ 5 н/о н/о +12.6 +1.6 47 +11 +11 1019.4 992.4
21 22.06 СВ 5 н/о н/о +12.3 +1.6 48 +10 +10 1019.2 992.2
23 22.06 С 5 н/о н/о +13.0 +1.7 46 +11 +11 1020.3 993.3
22 22.06 С 5 н/о н/о +12.5 +1.5 47 +11 +11 1020.0 993.0
00 23.06 С 6 н/о н/о +15.2 +2.1 41 +14 +14 1020.9 993.9
01 23.06 С 8 н/о н/о +18.9 +2.3 33 +18 +18 1020.9 993.9
02 23.06 С 8 н/о н/о +20.6 +2.9 31 +21 +21 комфорт 1020.4 993.4
03 23.06 С 7 н/о н/о +23.2 +2.7 26 +23 +23 комфорт 1019.6 992.6
05 23.06 З 5 н/о н/о +24.5 +2.6 24 +24 +24 комфорт 1017.7 990.8
04 23.06 З 8 н/о н/о +24.6 +2.7 24 +24 +24 комфорт 1018.5 991.5
06 23.06 З 6 н/о н/о +24.6 +2.1 23 +24 +24 комфорт 1017.2 990.3
07 23.06 З 5 н/о н/о +23.8 +2.0 24 +23 +23 комфорт 1017.2 990.3
08 23.06 ЮЗ 3 н/о н/о +21.9 +2.1 27 +22 +22 комфорт 1017.2 990.3
09 23.06 ЮЗ 5 н/о н/о +20.9 +2.2 29 +21 +21 комфорт 1018.1 991.1
11 23.06 Ю 4 н/о н/о +18.6 +2.4 34 +19 +19 1019.3 992.3
10 23.06 Ю 6 н/о н/о +20.1 +2.5 31 +20 +20 1018.8 991.8
12 23.06 Ю 3 н/о н/о +17.7 +3.2 38 +18 +18 1019.0 992.0
13 23.06 Ю 3 н/о н/о +16.0 +2.8 41 +16 +16 1019.3 992.3
14 23.06 Ю 4 н/о н/о +14.3 +2.9 46 +13 +13 1019.1 992.1
15 23.06 Ю 4 н/о н/о +15.8 +4.5 47 +15 +15 1018.7 991.7
17 23.06 ЮЗ 4 н/о н/о +14.2 +4.2 51 +13 +13 1018.3 991.3
16 23.06 ЮВ 3 н/о н/о +15.4 +3.9 46 +15 +15 1018.7 991.7
18 23.06 ЮЗ 4 н/о н/о +14.6 +4.6 51 +14 +14 1019.0 992.0
19 23.06 ЮЗ 5 н/о н/о +14.4 +5.5 55 +13 +13 1018.9 991.9
20 23.06 Ю 4 н/о н/о +14.4 +7.0 61 +13 +13 1018.4 991.4
21 23.06 Ю 4 н/о н/о +13.8 +7.1 64 +12 +12 1019.0 992.0
23 23.06 Ю 3 н/о н/о +14.7 +7.7 63 +14 +14 1020.2 993.2
22 23.06 ЮЗ 4 н/о н/о +13.7 +7.2 65 +12 +12 1020.1 993.1
00 24.06 ЮЗ 4 н/о н/о +15.3 +8.8 65 +14 +14 1021.0 994.0
01 24.06 Ю 4 н/о н/о +15.3 +9.7 69 +14 +14 1020.9 993.9
02 24.06 Ю 5 н/о н/о +16.7 +9.1 61 +16 +16 1020.7 993.7
03 24.06 ЮЗ 3 н/о н/о +18.5 +9.6 56 +19 +19 1020.2 993.2
05 24.06 ЮЗ 4 н/о н/о +20.5 +6.5 40 +22 +22 комфорт 1018.5 991.5
04 24.06 ЮЗ 5 н/о н/о +19.8 +6.9 43 +20 +20 1019.3 992.3
06 24.06 ЮЗ 5 н/о н/о +20.9 +5.7 37 +22 +22 комфорт 1018.5 991.5
07 24.06 ЮЗ 5 н/о н/о +20.1 +5.7 39 +21 +21 комфорт 1018.6 991.6
08 24.06 ЮЗ 4 н/о н/о +19.1 +4.8 39 +20 +20 1018.7 991.7
09 24.06 ЮЗ 3 н/о н/о +17.4 +4.4 42 +18 +18 1019.0 992.0
11 24.06 Ю 3 н/о н/о +15.6 +4.6 48 +15 +15 1019.9 992.9
10 24.06 Ю 3 н/о н/о +16.8 +4.8 45 +17 +17 1019.6 992.6
12 24.06 Ю 3 н/о н/о +15.6 +5.8 52 +15 +15 1020.4 993.4
13 24.06 Ю 3 н/о н/о +15.0 +5.8 54 +15 +15 1020.3 993.3
14 24.06 Ю 2 н/о н/о +12.1 +4.3 59 +11 +11 1020.6 993.6
15 24.06 Ю 2 н/о н/о +11.3 +4.1 61 +10 +10 1020.2 993.2
17 24.06 Ю 4 н/о н/о +12.4 +6.0 65 +11 +11 1020.4 993.4
16 24.06 Ю 5 н/о н/о +11.8 +5.7 66 +10 +10 1020.2 993.2
18 24.06 Ю 4 н/о н/о +11.9 +6.2 68 +10 +10 1020.3 993.3
19 24.06 Ю 5 н/о н/о +11.8 +6.9 72 +9 +9 1020.0 993.0
20 24.06 Ю 5 н/о н/о +11.3 +6.6 73 +9 +9 1020.3 993.3
21 24.06 Ю 5 н/о н/о +11.2 +7.1 76 +9 +9 1020.5 993.5
23 24.06 Ю 3 н/о н/о +11.4 +7.3 76 +10 +10 1022.8 995.7
22 24.06 Ю 4 н/о н/о +11.0 +7.1 77 +9 +9 1021.7 994.6
00 25.06 ЮЗ 3 н/о н/о +12.3 +7.0 70 +11 +11 1023.6 996.5
01 25.06 ЮЗ 4 н/о н/о +13.2 +7.6 69 +12 +12 1024.3 997.2
02 25.06 Ю 4 н/о н/о +14.7 +7.5 62 +14 +14 1023.7 996.6
03 25.06 Ю 4 н/о н/о +15.1 +8.1 63 +14 +14 1023.0 995.9
05 25.06 Ю 5 н/о н/о +15.8 +7.8 59 +15 +15 1021.3 994.3
04 25.06 Ю 4 н/о н/о +15.3 +8.1 62 +15 +15 1022.3 995.2
06 25.06 Ю 6 н/о н/о +16.0 +7.7 58 +15 +15 1021.4 994.4
07 25.06 Ю 4 н/о н/о +15.9 +7.7 58 +15 +15 1021.8 994.7
08 25.06 Ю 4 н/о н/о +15.5 +8.0 61 +15 +15 1021.5 994.5
09 25.06 Ю 4 н/о н/о +14.2 +10.0 76 +13 +13 1022.6 995.5
11 25.06 ЮЗ 2 н/о н/о +13.1 +11.3 89 +13 +13 1023.5 996.4
10 25.06 Ю 2 н/о н/о +13.6 +11.3 86 +13 +13 1022.9 995.8
12 25.06 штиль 0 н/о н/о +12.9 +11.5 91 +12 +12 1023.5 996.4
13 25.06 З 2 н/о н/о +12.6 +11.7 94 +12 +12 1024.0 996.9
14 25.06 СЗ 2 н/о н/о +12.0 +11.1 94 +11 +11 1023.8 996.7
15 25.06 штиль 0 н/о н/о +12.0 +11.2 95 +11 +11 1023.2 996.1
17 25.06 С 2 н/о н/о +11.7 +11.1 96 +10 +10 1022.8 995.7
16 25.06 штиль 0 н/о н/о +11.8 +11.0 95 +11 +11 1022.8 995.7
18 25.06 штиль 0 н/о н/о +11.6 +10.8 95 +11 +11 1022.6 995.5
19 25.06 штиль 0 н/о н/о +11.5 +10.9 96 +11 +11 1023.1 996.0
20 25.06 ЮЗ 3 н/о н/о +11.6 +11.1 97 +10 +10 1022.9 995.8
21 25.06 ЮВ 1 н/о н/о +11.6 +11.0 96 +11 +11 1023.4 996.3
23 25.06 В 2 н/о н/о +11.3 +10.5 95 +10 +10 1024.3 997.2
22 25.06 СВ 3 н/о н/о +11.1 +10.6 97 +9 +9 1023.6 996.5
00 26.06 штиль 0 н/о н/о +11.9 +10.5 91 +11 +11 1025.7 998.5
01 26.06 В 3 н/о н/о +11.8 +10.0 89 +10 +10 1025.9 998.7
02 26.06 В 5 н/о н/о +11.5 +9.4 87 +9 +9 1025.0 997.9
03 26.06 В 4 н/о н/о +11.6 +9.2 85 +9 +9 1024.4 997.3
05 26.06 ЮВ 3 н/о н/о +11.7 +9.4 86 +10 +10 1024.0 996.9
04 26.06 В 4 н/о н/о +11.8 +8.8 82 +10 +10 1024.0 996.9
06 26.06 ЮВ 3 н/о н/о +11.5 +9.8 89 +10 +10 1023.8 996.7
07 26.06 ЮВ 4 н/о н/о +11.2 +10.0 92 +9 +9 1023.6 996.5
08 26.06 В 5 н/о н/о +10.8 +9.6 92 +8 +8 1023.5 996.4
09 26.06 ЮВ 4 н/о н/о +10.6 +9.5 93 +8 +8 1023.9 996.8
11 26.06 В 4 н/о н/о +10.3 +9.4 94 +7 +7 1024.4 997.3
10 26.06 В 4 н/о н/о +10.5 +9.6 94 +8 +8 1024.3 997.2
12 26.06 В 6 н/о н/о +10.0 +9.2 95 +6 +6 1024.0 996.9
13 26.06 В 6 н/о н/о +9.9 +9.1 95 +6 +6 1023.9 996.8
14 26.06 ЮВ 4 н/о н/о +10.0 +9.4 96 +7 +7 1024.1 997.0
15 26.06 В 4 н/о н/о +9.9 +9.3 96 +7 +7 1023.8 996.7
16 26.06 В 5 н/о н/о +9.8 +9.0 95 +7 +7 1023.1 996.0

 

Местоположение метеостанции Coober Pedy Airport (Южная Австралия, Австралия): широта -29.03 долгота 134.71 высота над уровнем моря 226 м.

В архиве по умолчанию представлена погода в Coober Pedy Airport за последнюю неделю. Архивные данные за месяц целиком и за предыдущие месяцы, начиная с января 2011 года, Вы можете получить, выбрав интересующий диапазон дат из раскрывающегося списка и нажав кнопку "Ввод!".

Внимание! Время в таблицах - всемирное. Для получения местного времени необходимо прибавить поправку, которая в Coober Pedy Airport равна 9.5 ч.

Смотрите также архив погоды в соседних городах и на ближайших метеорологических станциях:

Погода в Oodnadatta Airport (Южная Австралия, Австралия) (180 км)
Погода в Tarcoola Aero (Южная Австралия, Австралия) (188 км)
Погода в Olympic Dam Aerodrome (Южная Австралия, Австралия) (264 км)
Погода в Woomera Aerodrome (Южная Австралия, Австралия) (311 км)
Погода в Marree Aero (Южная Австралия, Австралия) (332 км)
Погода в Ceduna Amo (Южная Австралия, Австралия) (358 км)
Погода в Pukatja (Южная Австралия, Австралия) (395 км)
Погода в Leigh Creek Airport (Южная Австралия, Австралия) (398 км)
Погода в Minnipa Pirsa (Южная Австралия, Австралия) (427 км)
Погода в Wudinna Aero (Южная Австралия, Австралия) (453 км)

Пояснения к столбцам:

Ветер - указаны скорость ветра в м/с - средняя за 10 мин, порывы в срок и между сроками (в фигурных скобках) и направление, откуда дует ветер: С - северный, СВ - северо-восточный, В - восточный, ЮВ - юго-восточный, Ю - южный, ЮЗ - юго-западный, З - западный, СЗ - северо-западный.
Видимость - горизонтальная дальность видимости в метрах или километрах. При видимости от 1 до 10 км при отсутствии осадков обычно наблюдается дымка, при ухудшении видимости до 1 км и менее - туман. В сухую погоду видимость может ухудшаться дымом, пылью или мглою.
Явления - указаны атмосферные явления, наблюдавшиеся в срок или в последний час перед сроком; фигурными скобками обозначены явления, наблюдавшиеся между сроками (за 1-3 часа до срока); квадратными скобками обозначены град или гололедные отложения с указанием их диаметра в мм.
Облачность - указаны через наклонную черту общая и нижняя облачность в баллах и высота нижней границы облаков в метрах; квадратными скобками обозначены формы облаков: Ci - перистые, Cs - перисто-слоистые, Cc - перисто-кучевые, Ac - высококучевые, As - высокослоистые, Sc - слоисто-кучевые, Ns - слоисто-дождевые, Cu - кучевые, Cb - кучево-дождевые. Подробнее классификацию облаков см. в Атласе облаков (PDF).
T - Температура воздуха - температура, измеренная на высоте 2 м над землей.
Td - Температура точки росы - температура, при понижении до которой содержащийся в воздухе водяной пар достигнет насыщения.
f - Относительная влажность воздуха - влажноcть воздуха, измеренная на высоте 2 м над землей.
Te - Эффективная температура - температура, которую ощущает одетый по сезону человек в тени. Характеристика душности погоды. При расчете учитывается влияние влажности воздуха и скорости ветра на теплоощущения человека.
Tes - Эффективная температура на солнце - температура, которую ощущает человек, с поправкой на солнечный нагрев. Характеристика знойности погоды. Зависит от высоты солнца над горизонтом, облачности и скорости ветра. Ночью, в пасмурную погоду, а также при ветре 12 м/с и более поправка равна нулю.
P - Атмосферное давление - приведенное к уровню моря атмосферное давление.
Po - Атмосферное давление - измеренное на уровне метеостанции атмосферное давление.
Tmin - Минимальная температура - минимум температуры воздуха на высоте 2 м над землей.
Tmax - Максимальная температура - максимум температуры воздуха на высоте 2 м над землей.
R - Количество осадков - Количество выпавших осадков за период времени, мм. При наведении курсора мыши на число - период времени, за который выпало указанное количество осадков.
R24 - Количество осадков - Количество выпавших осадков за 24 часа, мм.
S - Снежный покров - Высота снежного покрова, см. При наведении курсора мыши на число - состояние снежного покрова и степень покрытия местности в баллах.